Вернуться в каталог

THORAD AGENA D DEB

АктивенSSO
NORAD 4639·DEBRIS·🇺🇸 United States

Запущен Apr 8, 1970 с Vandenberg Space Force Base

Loading…

Ближайшие Пролёты (ближайшие 24 часа)

TLE

СвежийSource: Space-Track

Эпоха: Sep 14, 2026, 03:45 UTC

1 04639U 70025X   26257.15678686  .00000099  00000-0  27917-3 0  9992
2 04639  99.8733 320.9774 0113246 221.4202 164.4993 13.33143233741133

Отслеживайте THORAD AGENA D DEB в реальном времени с AllMySat

Download on the App Store